| time (UTC) | temp F | wind direction | speed MPH | gust MPH | rain 1hr in | rain 24hr in | rain mn in | humidity % | barometer mb |
| 20260506190017 | 84 | 341 | 2.0 | 41.0 | 0.00 | 0.00 | 0.00 | 100 | 1008.8 |
| 20260506185017 | 84 | 342 | 3.0 | 45.0 | 0.00 | 0.00 | 0.00 | 100 | 1008.7 |
| 20260506184018 | 84 | 342 | 3.0 | 43.0 | 0.00 | 0.00 | 0.00 | 100 | 1008.7 |
| 20260506183019 | 84 | 329 | 3.0 | 45.0 | 0.00 | 0.00 | 0.00 | 100 | 1008.7 |
| 20260506182019 | 84 | 326 | 3.0 | 45.0 | 0.00 | 0.00 | 0.00 | 100 | 1008.9 |
| 20260506181016 | 84 | 343 | 2.0 | 41.0 | 0.00 | 0.00 | 0.00 | 100 | 1008.9 |
| 20260506180016 | 85 | 327 | 2.0 | 40.0 | 0.00 | 0.00 | 0.00 | 100 | 1008.9 |
| 20260506175017 | 85 | 331 | 3.0 | 45.0 | 0.00 | 0.00 | 0.00 | 100 | 1009.0 |
| 20260506174018 | 85 | 337 | 2.0 | 42.0 | 0.00 | 0.00 | 0.00 | 100 | 1009.1 |
| 20260506173019 | 85 | 336 | 2.0 | 33.0 | 0.00 | 0.00 | 0.00 | 100 | 1009.2 |
| 20260506172121 | 85 | 341 | 2.0 | 35.0 | 0.00 | 0.00 | 0.00 | 100 | 1009.4 |
| 20260506171016 | 85 | 342 | 3.0 | 43.0 | 0.00 | 0.00 | 0.00 | 100 | 1009.5 |
| 20260506170036 | 85 | 329 | 3.0 | 48.0 | 0.00 | 0.00 | 0.00 | 100 | 1009.6 |
| 20260506165017 | 85 | 332 | 3.0 | 48.0 | 0.00 | 0.00 | 0.00 | 100 | 1009.7 |
| 20260506164040 | 85 | 342 | 3.0 | 42.0 | 0.00 | 0.00 | 0.00 | 100 | 1009.7 |
| 20260506163039 | 86 | 336 | 3.0 | 45.0 | 0.00 | 0.00 | 0.00 | 100 | 1009.7 |
| 20260506162100 | 86 | 328 | 3.0 | 45.0 | 0.00 | 0.00 | 0.00 | 100 | 1009.6 |
| 20260506161016 | 86 | 345 | 3.0 | 43.0 | 0.00 | 0.00 | 0.00 | 100 | 1009.7 |
| 20260506160016 | 86 | 342 | 3.0 | 44.0 | 0.00 | 0.00 | 0.00 | 100 | 1009.6 |
| 20260506155017 | 86 | 342 | 2.0 | 17.0 | 0.00 | 0.00 | 0.00 | 100 | 1009.5 |
| 20260506154018 | 86 | 341 | 2.0 | 36.0 | 0.00 | 0.00 | 0.00 | 100 | 1009.5 |
| 20260506153020 | 86 | 306 | 3.0 | 43.0 | 0.00 | 0.00 | 0.00 | 100 | 1009.4 |
| 20260506152020 | 86 | 341 | 3.0 | 43.0 | 0.00 | 0.00 | 0.00 | 100 | 1009.4 |
| 20260506151020 | 86 | 339 | 2.0 | 40.0 | 0.00 | 0.00 | 0.00 | 100 | 1009.3 |
| 20260506150016 | 86 | 347 | 3.0 | 43.0 | 0.00 | 0.00 | 0.00 | 100 | 1009.2 |
| 20260506145018 | 86 | 329 | 3.0 | 46.0 | 0.00 | 0.00 | 0.00 | 100 | 1009.0 |
| 20260506144018 | 87 | 342 | 2.0 | 41.0 | 0.00 | 0.00 | 0.00 | 100 | 1009.0 |
| 20260506143020 | 87 | 340 | 2.0 | 33.0 | 0.00 | 0.00 | 0.00 | 100 | 1008.8 |
| 20260506142020 | 87 | 342 | 3.0 | 44.0 | 0.00 | 0.00 | 0.00 | 100 | 1008.7 |
| 20260506141021 | 87 | 345 | 2.0 | 42.0 | 0.00 | 0.00 | 0.00 | 100 | 1008.6 |
| 20260506140016 | 87 | 350 | 2.0 | 41.0 | 0.00 | 0.00 | 0.00 | 100 | 1008.5 |
| 20260506135017 | 87 | 331 | 2.0 | 37.0 | 0.00 | 0.00 | 0.00 | 100 | 1008.4 |
| 20260506134038 | 87 | 29 | 2.0 | 38.0 | 0.00 | 0.00 | 0.00 | 100 | 1008.2 |
| 20260506133039 | 87 | 360 | 2.0 | 33.0 | 0.00 | 0.00 | 0.00 | 100 | 1008.0 |
| 20260506132039 | 87 | 351 | 3.0 | 44.0 | 0.00 | 0.00 | 0.00 | 100 | 1007.9 |
| 20260506131100 | 87 | 342 | 3.0 | 46.0 | 0.00 | 0.00 | 0.00 | 100 | 1007.8 |
| 20260506130016 | 88 | 347 | 3.0 | 42.0 | 0.00 | 0.00 | 0.00 | 100 | 1007.7 |
| 20260506125017 | 88 | 336 | 3.0 | 43.0 | 0.00 | 0.00 | 0.00 | 100 | 1007.7 |
| 20260506124017 | 87 | 334 | 3.0 | 43.0 | 0.00 | 0.00 | 0.00 | 100 | 1007.6 |
| 20260506123018 | 87 | 287 | 3.0 | 42.0 | 0.00 | 0.00 | 0.00 | 100 | 1007.5 |
| 20260506122020 | 88 | 270 | 3.0 | 42.0 | 0.00 | 0.00 | 0.00 | 100 | 1007.4 |
| 20260506121021 | 88 | 279 | 2.0 | 41.0 | 0.00 | 0.00 | 0.00 | 100 | 1007.3 |
| 20260506120016 | 88 | 271 | 3.0 | 44.0 | 0.00 | 0.00 | 0.00 | 100 | 1007.2 |
| 20260506115017 | 89 | 261 | 3.0 | 43.0 | 0.00 | 0.00 | 0.00 | 100 | 1007.2 |
| 20260506114017 | 89 | 253 | 3.0 | 46.0 | 0.00 | 0.00 | 0.00 | 100 | 1007.2 |
| 20260506113019 | 89 | 265 | 2.0 | 18.0 | 0.00 | 0.00 | 0.00 | 100 | 1007.2 |
| 20260506112020 | 89 | 325 | 3.0 | 43.0 | 0.00 | 0.00 | 0.00 | 100 | 1007.3 |
| 20260506111020 | 89 | 341 | 3.0 | 43.0 | 0.00 | 0.00 | 0.00 | 100 | 1007.2 |
| 20260506110015 | 90 | 323 | 3.0 | 42.0 | 0.00 | 0.00 | 0.00 | 100 | 1007.3 |
| 20260506105017 | 90 | 346 | 3.0 | 45.0 | 0.00 | 0.00 | 0.00 | 100 | 1007.4 |
| 20260506104039 | 91 | 343 | 2.0 | 39.0 | 0.00 | 0.00 | 0.00 | 100 | 1007.5 |
| 20260506103018 | 91 | 341 | 2.0 | 41.0 | 0.00 | 0.00 | 0.00 | 100 | 1007.6 |
| 20260506102019 | 91 | 348 | 3.0 | 42.0 | 0.00 | 0.00 | 0.00 | 100 | 1007.5 |
| 20260506101041 | 91 | 346 | 3.0 | 42.0 | 0.00 | 0.00 | 0.00 | 100 | 1007.4 |
| 20260506100016 | 91 | 337 | 3.0 | 42.0 | 0.00 | 0.00 | 0.00 | 100 | 1007.2 |
| 20260506095016 | 91 | 316 | 3.0 | 42.0 | 0.00 | 0.00 | 0.00 | 100 | 1007.4 |
| 20260506094017 | 90 | 309 | 3.0 | 45.0 | 0.00 | 0.00 | 0.00 | 100 | 1007.4 |
| 20260506093038 | 90 | 286 | 3.0 | 42.0 | 0.00 | 0.00 | 0.00 | 100 | 1007.3 |
| 20260506092019 | 90 | 308 | 2.0 | 41.0 | 0.00 | 0.00 | 0.00 | 100 | 1007.2 |
| 20260506091021 | 90 | 350 | 3.0 | 42.0 | 0.00 | 0.00 | 0.00 | 100 | 1007.1 |
| 20260506090037 | 91 | 340 | 2.0 | 42.0 | 0.00 | 0.00 | 0.00 | 100 | 1007.0 |
| 20260506085016 | 91 | 347 | 3.0 | 44.0 | 0.00 | 0.00 | 0.00 | 100 | 1007.1 |
| 20260506084018 | 91 | 321 | 3.0 | 45.0 | 0.00 | 0.00 | 0.00 | 100 | 1007.1 |
| 20260506083019 | 91 | 318 | 2.0 | 32.0 | 0.00 | 0.00 | 0.00 | 100 | 1007.3 |
| 20260506082039 | 91 | 308 | 3.0 | 43.0 | 0.00 | 0.00 | 0.00 | 100 | 1007.3 |
| 20260506081020 | 91 | 312 | 3.0 | 43.0 | 0.00 | 0.00 | 0.00 | 100 | 1007.4 |
| 20260506073018 | 94 | 332 | 3.0 | 43.0 | 0.00 | 0.00 | 0.00 | 100 | 1007.8 |
| 20260506072040 | 94 | 333 | 2.0 | 36.0 | 0.00 | 0.00 | 0.00 | 100 | 1007.7 |
| 20260506071019 | 94 | 337 | 2.0 | 40.0 | 0.00 | 0.00 | 0.00 | 100 | 1007.9 |
| 20260506062019 | 95 | 323 | 3.0 | 45.0 | 0.00 | 0.00 | 0.00 | 100 | 1008.7 |
| 20260506061019 | 95 | 289 | 3.0 | 42.0 | 0.00 | 0.00 | 0.00 | 100 | 1008.8 |
| 20260506051020 | 93 | 324 | 3.0 | 44.0 | 0.00 | 0.00 | 0.00 | 100 | 1010.1 |
| 20260506045016 | 92 | 338 | 3.0 | 43.0 | 0.00 | 0.00 | 0.00 | 100 | 1010.4 |
| 20260506044017 | 93 | 324 | 3.0 | 44.0 | 0.00 | 0.00 | 0.00 | 100 | 1010.4 |
| 20260506043018 | 92 | 310 | 2.0 | 41.0 | 0.00 | 0.00 | 0.00 | 100 | 1010.5 |
| 20260506042019 | 92 | 339 | 3.0 | 43.0 | 0.00 | 0.00 | 0.00 | 100 | 1010.4 |
| 20260506041019 | 91 | 343 | 2.0 | 41.0 | 0.00 | 0.00 | 0.00 | 100 | 1010.4 |
| 20260506040020 | 91 | 335 | 2.0 | 39.0 | 0.00 | 0.00 | 0.00 | 100 | 1010.4 |
| 20260506035016 | 91 | 344 | 2.0 | 41.0 | 0.00 | 0.00 | 0.00 | 100 | 1010.5 |
| 20260506034017 | 91 | 329 | 3.0 | 43.0 | 0.00 | 0.00 | 0.00 | 100 | 1010.6 |
| 20260506033018 | 90 | 341 | 3.0 | 43.0 | 0.00 | 0.00 | 0.00 | 100 | 1010.6 |
| 20260506032019 | 90 | 306 | 2.0 | 40.0 | 0.00 | 0.00 | 0.00 | 100 | 1010.6 |
| 20260506031019 | 89 | 337 | 3.0 | 43.0 | 0.00 | 0.00 | 0.00 | 100 | 1010.7 |
| 20260506025016 | 88 | 304 | 3.0 | 42.0 | 0.00 | 0.00 | 0.00 | 100 | 1010.7 |
| 20260506024037 | 88 | 294 | 3.0 | 46.0 | 0.00 | 0.00 | 0.00 | 100 | 1010.7 |
| 20260506023017 | 88 | 320 | 2.0 | 32.0 | 0.00 | 0.00 | 0.00 | 100 | 1010.7 |
| 20260506022019 | 88 | 271 | 2.0 | 40.0 | 0.00 | 0.00 | 0.00 | 100 | 1010.7 |
| 20260506021019 | 87 | 341 | 2.0 | 42.0 | 0.00 | 0.00 | 0.00 | 100 | 1010.6 |
| 20260506020041 | 87 | 295 | 3.0 | 43.0 | 0.00 | 0.00 | 0.00 | 100 | 1010.5 |
| 20260506015016 | 86 | 316 | 3.0 | 44.0 | 0.00 | 0.00 | 0.00 | 100 | 1010.4 |
| 20260506014016 | 86 | 293 | 2.0 | 42.0 | 0.00 | 0.00 | 0.00 | 100 | 1010.3 |
| 20260506013017 | 86 | 312 | 3.0 | 44.0 | 0.00 | 0.00 | 0.00 | 100 | 1010.3 |
| 20260506012018 | 85 | 328 | 3.0 | 44.0 | 0.00 | 0.00 | 0.00 | 100 | 1010.2 |
| 20260506011019 | 85 | 272 | 3.0 | 45.0 | 0.00 | 0.00 | 0.00 | 100 | 1010.1 |
| 20260506010041 | 85 | 299 | 2.0 | 16.0 | 0.00 | 0.00 | 0.00 | 100 | 1010.2 |
| 20260506005021 | 85 | 295 | 3.0 | 42.0 | 0.00 | 0.00 | 0.00 | 100 | 1010.2 |
| 20260506004017 | 85 | 282 | 2.0 | 42.0 | 0.00 | 0.00 | 0.00 | 100 | 1010.1 |
| 20260506003018 | 84 | 276 | 2.0 | 41.0 | 0.00 | 0.00 | 0.00 | 100 | 1009.9 |
| 20260506002018 | 84 | 258 | 2.0 | 41.0 | 0.00 | 0.00 | 0.00 | 100 | 1009.8 |
| 20260506001018 | 84 | 249 | 3.0 | 44.0 | 0.00 | 0.00 | 0.00 | 100 | 1009.7 |
| 20260506000020 | 84 | 260 | 3.0 | 42.0 | 0.00 | 0.00 | 0.00 | 100 | 1009.7 |
| 20260505235015 | 84 | 261 | 2.0 | 42.0 | 0.00 | 0.00 | 0.00 | 100 | 1009.7 |
| 20260505234016 | 83 | 261 | 2.0 | 42.0 | 0.00 | 0.00 | 0.00 | 100 | 1009.6 |
| 20260505233017 | 83 | 287 | 2.0 | 32.0 | 0.00 | 0.00 | 0.00 | 100 | 1009.7 |
| 20260505232018 | 83 | 293 | 3.0 | 43.0 | 0.00 | 0.00 | 0.00 | 100 | 1009.6 |
| 20260505231020 | 83 | 293 | 3.0 | 45.0 | 0.00 | 0.00 | 0.00 | 100 | 1009.5 |
| 20260505230020 | 84 | 267 | 3.0 | 43.0 | 0.00 | 0.00 | 0.00 | 100 | 1009.5 |
| 20260505225021 | 84 | 288 | 2.0 | 42.0 | 0.00 | 0.00 | 0.00 | 100 | 1009.4 |
| 20260505224016 | 84 | 275 | 2.0 | 40.0 | 0.00 | 0.00 | 0.00 | 100 | 1009.3 |
| 20260505223037 | 84 | 265 | 3.0 | 44.0 | 0.00 | 0.00 | 0.00 | 100 | 1009.2 |
| 20260505222018 | 84 | 260 | 3.0 | 44.0 | 0.00 | 0.00 | 0.00 | 100 | 1009.1 |
| 20260505221019 | 84 | 269 | 3.0 | 44.0 | 0.00 | 0.00 | 0.00 | 100 | 1009.0 |
| 20260505220020 | 84 | 269 | 3.0 | 44.0 | 0.00 | 0.00 | 0.00 | 100 | 1009.1 |
| 20260505215020 | 84 | 293 | 3.0 | 42.0 | 0.00 | 0.00 | 0.00 | 100 | 1009.2 |
| 20260505214017 | 84 | 263 | 3.0 | 43.0 | 0.00 | 0.00 | 0.00 | 100 | 1009.4 |
| 20260505213017 | 84 | 308 | 2.0 | 41.0 | 0.00 | 0.00 | 0.00 | 100 | 1009.3 |
| 20260505212038 | 84 | 271 | 2.0 | 40.0 | 0.00 | 0.00 | 0.00 | 100 | 1009.0 |
| 20260505211018 | 84 | 301 | 2.0 | 41.0 | 0.00 | 0.00 | 0.00 | 100 | 1009.1 |
| 20260505210019 | 84 | 256 | 3.0 | 42.0 | 0.00 | 0.00 | 0.00 | 100 | 1009.1 |
| 20260505205101 | 84 | 251 | 3.0 | 43.0 | 0.00 | 0.00 | 0.00 | 100 | 1009.2 |
| 20260505204037 | 85 | 272 | 3.0 | 42.0 | 0.00 | 0.00 | 0.00 | 100 | 1009.1 |
| 20260505203017 | 85 | 253 | 2.0 | 31.0 | 0.00 | 0.00 | 0.00 | 100 | 1009.0 |
| 20260505202018 | 85 | 251 | 3.0 | 44.0 | 0.00 | 0.00 | 0.00 | 100 | 1009.1 |
| 20260505201039 | 85 | 257 | 3.0 | 44.0 | 0.00 | 0.00 | 0.00 | 100 | 1009.3 |
| 20260505200019 | 85 | 288 | 3.0 | 45.0 | 0.00 | 0.00 | 0.00 | 100 | 1009.2 |
| 20260505195020 | 85 | 269 | 2.0 | 20.0 | 0.00 | 0.00 | 0.00 | 100 | 1009.2 |
| 20260505194016 | 85 | 286 | 3.0 | 46.0 | 0.00 | 0.00 | 0.00 | 100 | 1009.2 |
| 20260505193017 | 85 | 277 | 3.0 | 48.0 | 0.00 | 0.00 | 0.00 | 100 | 1009.4 |
| 20260505192017 | 85 | 286 | 3.0 | 43.0 | 0.00 | 0.00 | 0.00 | 100 | 1009.5 |
| 20260505191018 | 85 | 297 | 3.0 | 43.0 | 0.00 | 0.00 | 0.00 | 100 | 1009.5 |